Flag for USA

Past Weather in Woodstock, New York, USA — Yesterday and Last 2 Weeks

Now
79 °F

Scattered clouds.


Feels Like: 80 °F
Forecast: 75 / 65 °F
Wind: 10 mph from South

Location: Dutchess County Airport
Current Time: Sep 28, 2020 at 4:04:43 pm
Latest Report: Sep 28, 2020 at 2:53 pm
Visibility: 10 mi
Pressure29.86 "Hg
Humidity: 56%
Dew Point: 62 °F
Location of WoodstockLocation

Past Weather in Woodstock — Graph

°F

Woodstock Temperature Yesterday

Maximum temperature yesterday: 80 °F (at 3:53 pm)
Minimum temperature yesterday: 63 °F (at 4:36 am)
Average temperature yesterday: 71 °F

High & Low Weather Summary for the Past Weeks

 TemperatureHumidityPressure
High81 °F (Sep 23, 1:53 pm)100% (Sep 22, 7:53 am)30.61 "Hg (Sep 22, 7:53 am)
Low32 °F (Sep 21, 5:53 am)25% (Sep 19, 3:53 pm)29.78 "Hg (Sep 23, 3:53 pm)
Average60 °F70%30.11 "Hg
* Reported Sep 13 1:53 pm — Sep 28 1:53 pm, Woodstock. Weather by CustomWeather, © 2020

Note: Actual official high and low records may vary slightly from our data, if they occured in-between our weather recording intervals... More about our weather records

Woodstock Weather History for the Previous 24 Hours

Scroll right to see more
 ConditionsComfort  
Time TempWeatherWind HumidityBarometerVisibility
1:53 pm
Mon, Sep 28
78 °FScattered clouds.8 mph60%29.87 "Hg10 mi
12:53 pm77 °FBroken clouds.7 mph64%29.88 "Hg10 mi
11:53 am76 °FMore clouds than sun.8 mph67%29.89 "Hg10 mi
11:40 am76 °FMostly cloudy.6 mph69%29.90 "Hg10 mi
10:53 am74 °FBroken clouds.6 mph74%29.89 "Hg10 mi
9:53 am73 °FBroken clouds.7 mph79%29.88 "Hg10 mi
8:53 am72 °FMore clouds than sun.6 mph84%29.87 "Hg10 mi
7:53 am71 °FMostly cloudy.7 mph87%29.86 "Hg10 mi
7:02 am71 °FBroken clouds.6 mph90%29.86 "Hg10 mi
5:53 am70 °FOvercast.3 mph93%29.83 "Hg10 mi
5:10 am70 °FOvercast.No wind93%29.84 "Hg10 mi
4:53 am70 °FLight rain. Mostly cloudy.No wind93%29.83 "Hg9 mi
3:53 am71 °FOvercast.No wind90%29.83 "Hg10 mi
3:27 am71 °FMostly cloudy.No wind93%29.85 "Hg8 mi
3:16 am71 °FMostly cloudy.No wind93%29.85 "Hg7 mi
2:53 am71 °FOvercast.No wind93%29.85 "Hg10 mi
2:35 am71 °FMostly cloudy.No wind93%29.87 "Hg8 mi
2:12 am71 °FMostly cloudy.3 mph93%29.87 "Hg10 mi
1:53 am71 °FOvercast.3 mph93%29.87 "Hg8 mi
1:08 am71 °FOvercast.No wind93%29.89 "Hg9 mi
12:53 am71 °FMostly cloudy.No wind93%29.88 "Hg10 mi
12:39 am71 °FMostly cloudy.No wind93%29.89 "Hg10 mi
12:07 am71 °FOvercast.No wind93%29.91 "Hg9 mi
11:53 pm
Sun, Sep 27
71 °FFog.No wind93%29.90 "Hg6 mi
11:16 pm72 °FLight rain. Fog.No wind91%29.92 "Hg6 mi
11:08 pm71 °FRain. Fog.No wind90%29.93 "Hg2 mi
9:53 pm73 °FPassing clouds.3 mph81%29.90 "Hg10 mi
8:53 pm74 °FMostly cloudy.7 mph79%29.91 "Hg10 mi
7:53 pm75 °FOvercast.8 mph74%29.91 "Hg10 mi
6:53 pm77 °FOvercast.6 mph66%29.90 "Hg10 mi
5:53 pm78 °FScattered clouds.6 mph62%29.89 "Hg10 mi
4:53 pm80 °FOvercast.3 mph56%29.89 "Hg10 mi
Weather by CustomWeather, © 2020

See weather overview